QPF
0.14 0.11 0.11 0.12 0.13 0.15 0.14 0.15 0.20 0.18 0.14 0.12 0.11 0.14 0.19 0.16 0.11 0.11 0.18 0.22 0.23 0.21 0.15 0.12 0.08 0.07 0.05 0.03 0.01 0.01 0.01 0.00 0.00 0.00 0.00 0.01 0.01 0.00 0.00 0.00 0.00 0.00 0.00
0.13 0.11 0.10 0.10 0.12 0.12 0.12 0.12 0.14 0.17 0.18 0.18 0.16 0.13 0.15 0.17 0.13 0.12 0.15 0.20 0.22 0.23 0.19 0.15 0.11 0.08 0.07 0.05 0.02 0.02 0.01 0.01 0.00 0.00 0.00 0.00 0.01 0.01 0.00 0.00 0.00 0.00 0.00
0.10 0.08 0.07 0.09 0.10 0.09 0.09 0.09 0.12 0.14 0.15 0.18 0.17 0.12 0.09 0.09 0.09 0.09 0.12 0.16 0.20 0.21 0.18 0.17 0.14 0.11 0.08 0.06 0.04 0.03 0.02 0.02 0.01 0.01 0.00 0.00 0.00 0.00 0.00 0.00 0.00 0.00 0.00
0.10 0.07 0.06 0.07 0.06 0.06 0.06 0.07 0.08 0.12 0.13 0.14 0.14 0.10 0.07 0.06 0.06 0.06 0.08 0.12 0.16 0.16 0.13 0.13 0.13 0.11 0.10 0.08 0.06 0.04 0.03 0.02 0.02 0.01 0.00 0.00 0.00 0.00 0.00 0.00 0.00 0.00 0.00
0.09 0.06 0.03 0.02 0.02 0.03 0.05 0.05 0.07 0.10 0.13 0.11 0.09 0.07 0.07 0.07 0.06 0.05 0.08 0.11 0.12 0.10 0.10 0.10 0.11 0.10 0.10 0.10 0.10 0.08 0.06 0.04 0.03 0.02 0.02 0.01 0.01 0.00 0.00 0.00 0.00 0.00 0.00
0.04 0.04 0.03 0.02 0.02 0.02 0.02 0.04 0.06 0.07 0.09 0.10 0.09 0.07 0.07 0.07 0.06 0.05 0.05 0.06 0.06 0.06 0.07 0.07 0.07 0.07 0.09 0.09 0.10 0.12 0.10 0.07 0.05 0.04 0.03 0.03 0.02 0.01 0.01 0.00 0.00 0.00 0.00
0.03 0.03 0.02 0.02 0.02 0.02 0.02 0.03 0.04 0.06 0.06 0.07 0.07 0.06 0.04 0.04 0.04 0.03 0.03 0.05 0.06 0.07 0.08 0.08 0.09 0.09 0.06 0.07 0.08 0.09 0.11 0.09 0.06 0.05 0.03 0.04 0.03 0.01 0.01 0.00 0.00 0.00 0.00
0.02 0.01 0.01 0.01 0.01 0.01 0.02 0.02 0.03 0.03 0.04 0.06 0.06 0.06 0.04 0.03 0.02 0.02 0.03 0.05 0.06 0.08 0.09 0.10 0.12 0.11 0.12 0.08 0.05 0.07 0.10 0.11 0.09 0.07 0.05 0.04 0.03 0.02 0.01 0.00 0.00 0.00 0.00
0.01 0.01 0.01 0.01 0.02 0.01 0.01 0.01 0.02 0.02 0.02 0.03 0.04 0.05 0.04 0.03 0.03 0.02 0.02 0.04 0.07 0.08 0.09 0.14 0.15 0.14 0.12 0.10 0.06 0.07 0.10 0.12 0.14 0.13 0.09 0.06 0.04 0.03 0.02 0.01 0.00 0.00 0.00
0.01 0.01 0.01 0.01 0.01 0.01 0.01 0.01 0.01 0.02 0.02 0.01 0.02 0.02 0.03 0.03 0.02 0.01 0.01 0.02 0.05 0.08 0.10 0.13 0.16 0.19 0.18 0.12 0.08 0.06 0.08 0.10 0.13 0.16 0.15 0.11 0.07 0.04 0.03 0.02 0.01 0.01 0.01
0.01 0.01 0.01 0.01 0.01 0.01 0.01 0.01 0.01 0.02 0.02 0.02 0.01 0.02 0.02 0.03 0.03 0.02 0.01 0.02 0.04 0.04 0.06 0.10 0.14 0.18 0.17 0.14 0.12 0.10 0.11 0.12 0.12 0.14 0.16 0.18 0.14 0.09 0.05 0.04 0.04 0.03 0.02
0.00 0.00 0.00 0.00 0.00 0.01 0.01 0.01 0.01 0.01 0.01 0.01 0.01 0.01 0.02 0.03 0.03 0.02 0.02 0.03 0.03 0.03 0.04 0.05 0.08 0.11 0.15 0.14 0.11 0.09 0.08 0.10 0.10 0.10 0.11 0.14 0.16 0.16 0.12 0.08 0.07 0.07 0.05
0.00 0.00 0.00 0.00 0.00 0.00 0.00 0.00 0.00 0.00 0.01 0.01 0.01 0.01 0.01 0.03 0.03 0.03 0.03 0.03 0.03 0.02 0.02 0.03 0.04 0.06 0.08 0.12 0.10 0.10 0.09 0.09 0.09 0.10 0.10 0.11 0.12 0.13 0.14 0.12 0.10 0.09 0.08
0.00 0.00 0.00 0.00 0.00 0.00 0.00 0.00 0.00 0.00 0.00 0.00 0.01 0.01 0.01 0.01 0.02 0.03 0.03 0.03 0.03 0.02 0.02 0.02 0.03 0.04 0.05 0.07 0.08 0.09 0.08 0.08 0.09 0.10 0.11 0.10 0.10 0.09 0.10 0.10 0.09 0.08 0.07
0.00 0.00 0.00 0.00 0.00 0.00 0.00 0.00 0.00 0.00 0.00 0.00 0.00 0.00 0.01 0.01 0.01 0.01 0.02 0.03 0.04 0.04 0.02 0.02 0.03 0.04 0.04 0.05 0.05 0.06 0.06 0.07 0.06 0.07 0.07 0.06 0.07 0.08 0.08 0.07 0.07 0.06 0.05
0.00 0.00 0.00 0.00 0.00 0.00 0.00 0.00 0.00 0.00 0.00 0.00 0.00 0.00 0.00 0.00 0.01 0.01 0.02 0.02 0.03 0.05 0.04 0.02 0.02 0.03 0.04 0.04 0.06 0.04 0.04 0.07 0.07 0.05 0.05 0.05 0.05 0.05 0.06 0.07 0.07 0.06 0.05
0.00 0.00 0.00 0.00 0.00 0.00 0.00 0.00 0.00 0.00 0.00 0.00 0.00 0.00 0.00 0.00 0.00 0.00 0.01 0.01 0.02 0.05 0.07 0.04 0.02 0.02 0.03 0.04 0.05 0.05 0.04 0.05 0.07 0.06 0.05 0.05 0.05 0.05 0.05 0.05 0.06 0.06 0.06
0.00 0.00 0.00 0.00 0.00 0.00 0.00 0.00 0.00 0.00 0.00 0.00 0.00 0.00 0.00 0.00 0.00 0.00 0.01 0.01 0.01 0.03 0.06 0.07 0.04 0.02 0.02 0.03 0.04 0.05 0.06 0.05 0.05 0.07 0.05 0.04 0.05 0.05 0.05 0.05 0.05 0.05 0.05
0.00 0.00 0.00 0.00 0.00 0.00 0.00 0.00 0.00 0.00 0.00 0.00 0.00 0.00 0.00 0.00 0.01 0.01 0.01 0.01 0.01 0.01 0.03 0.06 0.05 0.03 0.02 0.02 0.03 0.04 0.04 0.05 0.05 0.06 0.06 0.04 0.04 0.05 0.05 0.05 0.06 0.05 0.06
0.00 0.00 0.00 0.00 0.00 0.00 0.00 0.00 0.00 0.00 0.00 0.00 0.00 0.00 0.00 0.00 0.00 0.01 0.01 0.01 0.01 0.01 0.01 0.03 0.05 0.04 0.03 0.03 0.03 0.03 0.03 0.03 0.05 0.07 0.07 0.05 0.05 0.05 0.05 0.06 0.06 0.05 0.04
0.00 0.00 0.00 0.00 0.00 0.00 0.00 0.00 0.00 0.00 0.00 0.00 0.00 0.00 0.00 0.00 0.01 0.01 0.01 0.01 0.01 0.01 0.01 0.02 0.03 0.05 0.04 0.04 0.03 0.02 0.02 0.02 0.04 0.06 0.08 0.07 0.06 0.05 0.04 0.04 0.05 0.05 0.05
0.00 0.00 0.00 0.00 0.00 0.00 0.00 0.00 0.00 0.00 0.00 0.00 0.00 0.00 0.00 0.00 0.00 0.00 0.01 0.01 0.01 0.01 0.01 0.02 0.02 0.04 0.05 0.04 0.04 0.03 0.02 0.02 0.04 0.05 0.07 0.08 0.07 0.06 0.05 0.04 0.04 0.05 0.05
0.00 0.00 0.00 0.00 0.00 0.00 0.00 0.00 0.00 0.00 0.00 0.00 0.00 0.00 0.00 0.00 0.00 0.01 0.01 0.01 0.01 0.01 0.01 0.01 0.02 0.02 0.04 0.04 0.04 0.04 0.03 0.02 0.03 0.05 0.07 0.09 0.11 0.09 0.06 0.06 0.06 0.05 0.06
0.00 0.00 0.00 0.00 0.00 0.00 0.00 0.00 0.00 0.00 0.00 0.00 0.00 0.00 0.00 0.00 0.00 0.01 0.01 0.01 0.01 0.01 0.01 0.01 0.01 0.01 0.02 0.04 0.05 0.05 0.04 0.03 0.03 0.05 0.06 0.08 0.09 0.09 0.09 0.08 0.08 0.06 0.05
0.00 0.00 0.00 0.00 0.00 0.00 0.00 0.00 0.00 0.00 0.00 0.00 0.00 0.00 0.00 0.00 0.00 0.00 0.01 0.01 0.01 0.01 0.02 0.03 0.02 0.01 0.02 0.03 0.06 0.05 0.05 0.03 0.03 0.04 0.06 0.07 0.08 0.09 0.09 0.09 0.10 0.10 0.07
0.00 0.00 0.00 0.00 0.00 0.00 0.00 0.00 0.00 0.00 0.00 0.00 0.00 0.00 0.00 0.00 0.00 0.00 0.01 0.01 0.01 0.02 0.03 0.03 0.02 0.02 0.02 0.02 0.04 0.05 0.05 0.04 0.03 0.04 0.06 0.07 0.08 0.09 0.11 0.12 0.11 0.10 0.09
MSLP
1015.25 1015.30 1015.31 1015.30 1015.33 1015.40 1015.52 1015.66 1015.83 1015.97 1016.08 1016.17 1016.26 1016.36 1016.52 1016.72 1016.99 1017.30 1017.60 1017.88 1018.09 1018.22 1018.29 1018.32 1018.36 1018.43 1018.58 1018.81 1019.12 1019.47 1019.85 1020.22 1020.55 1020.86 1021.15 1021.42 1021.69 1021.98 1022.27 1022.56 1022.83 1023.08 1023.28
1015.14 1015.22 1015.26 1015.29 1015.34 1015.43 1015.55 1015.68 1015.82 1015.93 1016.03 1016.10 1016.18 1016.28 1016.42 1016.61 1016.85 1017.12 1017.38 1017.61 1017.79 1017.91 1017.97 1018.02 1018.08 1018.18 1018.34 1018.58 1018.88 1019.22 1019.57 1019.92 1020.26 1020.59 1020.90 1021.22 1021.55 1021.89 1022.22 1022.55 1022.84 1023.10 1023.30
1014.93 1015.05 1015.15 1015.23 1015.34 1015.46 1015.59 1015.73 1015.86 1015.96 1016.03 1016.09 1016.15 1016.23 1016.35 1016.51 1016.70 1016.90 1017.09 1017.26 1017.38 1017.47 1017.53 1017.58 1017.67 1017.80 1018.00 1018.27 1018.58 1018.91 1019.26 1019.60 1019.94 1020.27 1020.60 1020.95 1021.31 1021.69 1022.07 1022.43 1022.75 1023.03 1023.24
1014.67 1014.82 1014.97 1015.12 1015.29 1015.47 1015.64 1015.79 1015.92 1016.01 1016.07 1016.11 1016.16 1016.21 1016.29 1016.40 1016.53 1016.65 1016.76 1016.84 1016.90 1016.93 1016.96 1017.02 1017.13 1017.31 1017.55 1017.85 1018.18 1018.54 1018.89 1019.23 1019.57 1019.89 1020.23 1020.59 1020.98 1021.39 1021.80 1022.20 1022.55 1022.85 1023.10
1014.40 1014.56 1014.75 1014.97 1015.21 1015.45 1015.66 1015.84 1015.98 1016.07 1016.12 1016.15 1016.17 1016.20 1016.25 1016.31 1016.36 1016.40 1016.42 1016.41 1016.38 1016.34 1016.33 1016.38 1016.50 1016.70 1016.98 1017.32 1017.70 1018.08 1018.45 1018.79 1019.13 1019.46 1019.80 1020.17 1020.57 1021.00 1021.44 1021.86 1022.25 1022.59 1022.87
1014.18 1014.33 1014.55 1014.82 1015.11 1015.41 1015.66 1015.87 1016.02 1016.11 1016.15 1016.17 1016.19 1016.21 1016.22 1016.24 1016.24 1016.20 1016.13 1016.02 1015.89 1015.78 1015.71 1015.72 1015.82 1016.03 1016.34 1016.71 1017.11 1017.52 1017.91 1018.27 1018.61 1018.95 1019.29 1019.67 1020.09 1020.53 1020.99 1021.45 1021.87 1022.24 1022.57
1014.07 1014.20 1014.42 1014.71 1015.04 1015.36 1015.65 1015.87 1016.03 1016.12 1016.16 1016.18 1016.20 1016.21 1016.22 1016.22 1016.18 1016.08 1015.93 1015.73 1015.51 1015.30 1015.16 1015.10 1015.16 1015.35 1015.65 1016.02 1016.43 1016.86 1017.27 1017.65 1018.01 1018.35 1018.71 1019.10 1019.53 1019.99 1020.47 1020.96 1021.41 1021.83 1022.20
1014.13 1014.20 1014.40 1014.69 1015.02 1015.35 1015.64 1015.86 1016.02 1016.10 1016.15 1016.17 1016.20 1016.23 1016.25 1016.24 1016.19 1016.06 1015.85 1015.58 1015.27 1014.97 1014.73 1014.59 1014.58 1014.71 1014.97 1015.31 1015.72 1016.14 1016.56 1016.95 1017.33 1017.69 1018.07 1018.47 1018.92 1019.40 1019.90 1020.41 1020.90 1021.35 1021.76
1014.35 1014.37 1014.53 1014.78 1015.09 1015.40 1015.66 1015.86 1015.99 1016.07 1016.11 1016.15 1016.19 1016.25 1016.30 1016.32 1016.27 1016.13 1015.90 1015.58 1015.20 1014.82 1014.48 1014.24 1014.14 1014.17 1014.35 1014.64 1015.00 1015.40 1015.80 1016.20 1016.59 1016.97 1017.37 1017.79 1018.26 1018.76 1019.28 1019.80 1020.32 1020.79 1021.23
1014.73 1014.69 1014.79 1014.99 1015.25 1015.51 1015.73 1015.89 1015.99 1016.04 1016.07 1016.11 1016.17 1016.26 1016.34 1016.40 1016.39 1016.27 1016.03 1015.69 1015.27 1014.82 1014.40 1014.06 1013.84 1013.77 1013.84 1014.04 1014.33 1014.68 1015.06 1015.44 1015.83 1016.22 1016.64 1017.08 1017.56 1018.07 1018.60 1019.14 1019.66 1020.16 1020.61
1015.20 1015.12 1015.16 1015.30 1015.50 1015.69 1015.85 1015.95 1016.00 1016.01 1016.02 1016.06 1016.13 1016.24 1016.36 1016.46 1016.49 1016.41 1016.19 1015.85 1015.41 1014.92 1014.43 1014.01 1013.69 1013.51 1013.47 1013.57 1013.77 1014.05 1014.37 1014.72 1015.10 1015.49 1015.91 1016.36 1016.84 1017.35 1017.88 1018.41 1018.93 1019.42 1019.89
1015.70 1015.59 1015.59 1015.67 1015.79 1015.92 1016.01 1016.04 1016.03 1016.00 1015.98 1016.00 1016.07 1016.19 1016.34 1016.47 1016.53 1016.49 1016.31 1016.00 1015.57 1015.07 1014.54 1014.06 1013.66 1013.39 1013.25 1013.24 1013.34 1013.53 1013.79 1014.10 1014.44 1014.82 1015.22 1015.66 1016.12 1016.62 1017.12 1017.63 1018.12 1018.60 1019.06
1016.15 1016.02 1015.99 1016.03 1016.10 1016.16 1016.18 1016.16 1016.09 1016.01 1015.94 1015.93 1015.98 1016.09 1016.24 1016.38 1016.47 1016.47 1016.33 1016.05 1015.66 1015.17 1014.66 1014.15 1013.71 1013.37 1013.15 1013.05 1013.07 1013.17 1013.36 1013.60 1013.90 1014.23 1014.59 1015.00 1015.43 1015.88 1016.34 1016.81 1017.27 1017.72 1018.15
1016.49 1016.38 1016.33 1016.34 1016.36 1016.37 1016.34 1016.26 1016.14 1016.01 1015.90 1015.84 1015.86 1015.94 1016.07 1016.20 1016.30 1016.31 1016.21 1015.98 1015.64 1015.20 1014.72 1014.23 1013.78 1013.42 1013.15 1012.99 1012.93 1012.97 1013.08 1013.24 1013.47 1013.74 1014.05 1014.40 1014.78 1015.17 1015.57 1015.98 1016.38 1016.78 1017.18
1016.70 1016.60 1016.55 1016.54 1016.54 1016.51 1016.45 1016.33 1016.17 1016.00 1015.85 1015.75 1015.71 1015.74 1015.83 1015.93 1016.01 1016.03 1015.95 1015.77 1015.48 1015.11 1014.68 1014.25 1013.84 1013.49 1013.22 1013.03 1012.92 1012.89 1012.93 1013.03 1013.17 1013.37 1013.61 1013.88 1014.17 1014.49 1014.82 1015.16 1015.50 1015.84 1016.21
1016.77 1016.69 1016.64 1016.62 1016.61 1016.57 1016.48 1016.34 1016.16 1015.97 1015.78 1015.64 1015.55 1015.52 1015.54 1015.59 1015.63 1015.63 1015.56 1015.41 1015.19 1014.89 1014.55 1014.20 1013.85 1013.55 1013.30 1013.10 1012.97 1012.90 1012.88 1012.91 1012.98 1013.09 1013.24 1013.42 1013.63 1013.86 1014.10 1014.36 1014.64 1014.93 1015.25
1016.71 1016.64 1016.59 1016.58 1016.55 1016.51 1016.42 1016.28 1016.10 1015.90 1015.70 1015.51 1015.37 1015.28 1015.23 1015.22 1015.20 1015.17 1015.09 1014.97 1014.78 1014.56 1014.31 1014.04 1013.78 1013.55 1013.35 1013.18 1013.05 1012.95 1012.88 1012.84 1012.84 1012.86 1012.92 1013.01 1013.13 1013.27 1013.43 1013.61 1013.82 1014.06 1014.34
1016.54 1016.47 1016.43 1016.41 1016.40 1016.36 1016.28 1016.16 1015.99 1015.79 1015.58 1015.37 1015.19 1015.04 1014.93 1014.84 1014.76 1014.68 1014.58 1014.46 1014.32 1014.16 1013.98 1013.80 1013.64 1013.48 1013.34 1013.21 1013.09 1012.97 1012.87 1012.78 1012.71 1012.65 1012.62 1012.62 1012.65 1012.70 1012.78 1012.89 1013.04 1013.23 1013.47
1016.31 1016.23 1016.19 1016.17 1016.15 1016.12 1016.06 1015.96 1015.82 1015.63 1015.42 1015.21 1015.00 1014.81 1014.64 1014.48 1014.34 1014.21 1014.08 1013.95 1013.83 1013.71 1013.59 1013.49 1013.40 1013.32 1013.23 1013.14 1013.04 1012.93 1012.81 1012.67 1012.54 1012.42 1012.31 1012.22 1012.16 1012.14 1012.15 1012.20 1012.29 1012.43 1012.64
1016.03 1015.94 1015.89 1015.87 1015.86 1015.84 1015.79 1015.71 1015.59 1015.43 1015.24 1015.03 1014.80 1014.58 1014.36 1014.15 1013.96 1013.77 1013.61 1013.46 1013.34 1013.24 1013.17 1013.12 1013.09 1013.06 1013.03 1012.97 1012.90 1012.79 1012.65 1012.49 1012.31 1012.13 1011.96 1011.80 1011.67 1011.58 1011.53 1011.52 1011.57 1011.67 1011.84
1015.73 1015.64 1015.58 1015.55 1015.54 1015.52 1015.49 1015.42 1015.33 1015.19 1015.02 1014.81 1014.59 1014.35 1014.10 1013.85 1013.61 1013.39 1013.18 1013.01 1012.88 1012.78 1012.73 1012.71 1012.71 1012.72 1012.72 1012.69 1012.63 1012.53 1012.39 1012.21 1012.00 1011.78 1011.56 1011.35 1011.17 1011.03 1010.92 1010.86 1010.86 1010.92 1011.06
1015.42 1015.33 1015.27 1015.23 1015.22 1015.20 1015.17 1015.12 1015.03 1014.91 1014.76 1014.57 1014.35 1014.11 1013.85 1013.58 1013.30 1013.04 1012.80 1012.60 1012.44 1012.34 1012.28 1012.26 1012.27 1012.29 1012.31 1012.30 1012.26 1012.16 1012.02 1011.84 1011.62 1011.38 1011.13 1010.89 1010.67 1010.48 1010.33 1010.23 1010.19 1010.21 1010.31
1015.13 1015.04 1014.98 1014.94 1014.91 1014.89 1014.85 1014.80 1014.73 1014.62 1014.48 1014.31 1014.10 1013.86 1013.59 1013.31 1013.02 1012.73 1012.46 1012.22 1012.04 1011.91 1011.83 1011.79 1011.79 1011.82 1011.84 1011.83 1011.79 1011.71 1011.58 1011.40 1011.18 1010.94 1010.68 1010.43 1010.18 1009.97 1009.78 1009.65 1009.56 1009.55 1009.60
1014.85 1014.77 1014.71 1014.66 1014.62 1014.59 1014.54 1014.49 1014.41 1014.32 1014.19 1014.03 1013.83 1013.60 1013.34 1013.05 1012.74 1012.43 1012.14 1011.88 1011.66 1011.49 1011.38 1011.32 1011.29 1011.30 1011.30 1011.30 1011.26 1011.19 1011.07 1010.91 1010.71 1010.48 1010.23 1009.98 1009.73 1009.50 1009.29 1009.12 1009.00 1008.94 1008.96
1014.59 1014.52 1014.45 1014.40 1014.34 1014.29 1014.24 1014.17 1014.10 1014.00 1013.89 1013.74 1013.55 1013.34 1013.08 1012.79 1012.48 1012.16 1011.84 1011.55 1011.29 1011.09 1010.94 1010.84 1010.78 1010.76 1010.74 1010.73 1010.69 1010.63 1010.53 1010.39 1010.22 1010.02 1009.79 1009.56 1009.32 1009.08 1008.86 1008.66 1008.51 1008.41 1008.39
1014.33 1014.26 1014.18 1014.12 1014.05 1013.98 1013.92 1013.85 1013.77 1013.68 1013.58 1013.44 1013.27 1013.06 1012.82 1012.53 1012.21 1011.88 1011.54 1011.22 1010.94 1010.70 1010.50 1010.36 1010.27 1010.21 1010.17 1010.15 1010.11 1010.05 1009.97 1009.87 1009.73 1009.56 1009.37 1009.16 1008.94 1008.71 1008.48 1008.27 1008.09 1007.96 1007.89
Thickness
5737 5736 5735 5735 5733 5731 5730 5728 5727 5726 5725 5725 5725 5725 5725 5724 5725 5725 5726 5726 5726 5725 5725 5725 5725 5725 5724 5724 5724 5724 5724 5723 5723 5723 5722 5722 5721 5721 5720 5719 5719 5718 5717
5735 5733 5732 5730 5728 5727 5726 5725 5724 5723 5722 5721 5722 5722 5722 5722 5722 5722 5723 5724 5723 5722 5722 5723 5724 5724 5724 5723 5723 5723 5723 5723 5722 5722 5722 5721 5721 5720 5719 5719 5718 5717 5717
5731 5730 5728 5726 5726 5724 5723 5722 5721 5720 5719 5719 5719 5719 5719 5719 5719 5720 5720 5721 5721 5720 5720 5721 5722 5723 5723 5723 5722 5722 5722 5722 5722 5722 5722 5721 5720 5720 5719 5718 5718 5717 5716
5727 5725 5724 5723 5722 5721 5720 5718 5717 5715 5715 5714 5714 5715 5716 5716 5717 5717 5718 5718 5718 5718 5719 5720 5721 5722 5722 5722 5721 5721 5721 5721 5721 5721 5721 5721 5720 5719 5719 5718 5717 5717 5716
5723 5721 5720 5719 5718 5717 5715 5714 5712 5711 5710 5710 5710 5712 5712 5713 5714 5715 5715 5716 5716 5717 5717 5719 5720 5721 5720 5720 5720 5720 5720 5720 5720 5720 5720 5720 5719 5719 5718 5718 5717 5716 5716
5719 5717 5715 5714 5713 5711 5710 5709 5708 5707 5706 5706 5707 5708 5709 5710 5711 5712 5713 5714 5715 5715 5715 5717 5718 5719 5719 5720 5720 5720 5720 5720 5720 5720 5720 5719 5719 5718 5718 5717 5717 5716 5715
5714 5713 5711 5709 5707 5705 5704 5704 5703 5702 5701 5701 5699 5699 5702 5706 5707 5709 5711 5712 5713 5713 5714 5715 5716 5717 5718 5718 5719 5719 5719 5719 5719 5719 5719 5719 5718 5718 5718 5717 5717 5716 5715
5710 5708 5706 5704 5702 5700 5699 5697 5697 5695 5694 5695 5692 5689 5687 5692 5700 5706 5707 5708 5710 5711 5711 5713 5714 5715 5716 5717 5718 5718 5718 5719 5719 5719 5719 5719 5718 5717 5717 5717 5716 5716 5715
5705 5704 5702 5699 5697 5695 5692 5691 5690 5688 5685 5687 5687 5683 5678 5678 5685 5694 5699 5702 5704 5705 5707 5709 5711 5712 5713 5714 5716 5717 5717 5718 5718 5718 5718 5718 5718 5717 5716 5716 5716 5716 5715
5700 5698 5696 5694 5691 5689 5687 5686 5684 5682 5680 5678 5678 5679 5678 5677 5675 5678 5687 5693 5697 5699 5702 5705 5707 5709 5710 5712 5713 5715 5716 5716 5717 5717 5717 5717 5717 5717 5716 5716 5715 5715 5715
5693 5692 5690 5688 5685 5683 5682 5680 5678 5677 5674 5672 5671 5670 5670 5671 5671 5669 5671 5678 5685 5692 5696 5699 5702 5705 5707 5709 5710 5712 5714 5715 5715 5716 5716 5717 5716 5716 5716 5716 5715 5715 5714
5686 5685 5684 5681 5679 5677 5675 5673 5672 5670 5668 5667 5665 5663 5661 5661 5661 5662 5662 5666 5672 5681 5688 5693 5696 5699 5701 5704 5707 5709 5710 5712 5713 5714 5714 5715 5715 5715 5715 5715 5715 5714 5714
5679 5678 5677 5675 5673 5671 5669 5667 5665 5663 5662 5660 5658 5657 5656 5655 5656 5656 5656 5657 5662 5669 5677 5683 5689 5692 5695 5698 5702 5705 5706 5708 5709 5710 5711 5712 5713 5714 5714 5714 5714 5714 5714
5675 5674 5672 5669 5667 5665 5663 5660 5658 5656 5655 5653 5652 5651 5650 5650 5649 5649 5650 5650 5650 5655 5663 5671 5679 5684 5687 5691 5695 5698 5700 5703 5704 5706 5707 5709 5710 5711 5712 5713 5713 5713 5713
5672 5670 5667 5664 5661 5659 5656 5654 5651 5649 5647 5646 5644 5644 5642 5643 5643 5643 5644 5644 5643 5643 5649 5658 5666 5674 5679 5682 5686 5689 5692 5696 5699 5701 5703 5704 5706 5707 5709 5710 5711 5712 5712
5668 5665 5662 5659 5656 5653 5650 5647 5644 5642 5640 5638 5637 5636 5635 5635 5635 5636 5636 5637 5638 5638 5641 5648 5655 5662 5668 5674 5678 5682 5686 5689 5692 5695 5697 5699 5701 5703 5705 5707 5708 5710 5711
5665 5661 5657 5653 5650 5647 5644 5640 5637 5635 5632 5630 5629 5628 5627 5627 5627 5627 5628 5629 5630 5631 5633 5640 5646 5653 5658 5663 5669 5674 5678 5682 5686 5689 5691 5694 5697 5699 5701 5703 5705 5707 5708
5661 5657 5653 5648 5645 5641 5638 5634 5630 5628 5625 5623 5621 5620 5619 5619 5619 5619 5619 5620 5622 5624 5626 5630 5635 5641 5647 5653 5659 5664 5670 5674 5678 5681 5685 5688 5691 5694 5696 5699 5701 5703 5705
5657 5652 5648 5644 5640 5636 5632 5628 5624 5621 5618 5616 5614 5612 5611 5610 5610 5610 5611 5612 5613 5617 5618 5621 5625 5630 5635 5642 5647 5653 5660 5665 5669 5674 5678 5682 5685 5688 5691 5694 5697 5699 5701
5653 5648 5644 5639 5635 5631 5627 5623 5619 5614 5611 5609 5607 5605 5604 5603 5602 5602 5603 5604 5605 5606 5608 5610 5614 5618 5623 5630 5634 5639 5645 5652 5658 5665 5670 5675 5679 5683 5687 5690 5693 5695 5698
5651 5645 5640 5635 5631 5627 5622 5617 5612 5609 5604 5601 5599 5598 5597 5597 5597 5596 5597 5596 5596 5597 5598 5600 5603 5607 5612 5616 5621 5627 5633 5640 5647 5654 5660 5667 5671 5676 5680 5684 5688 5692 5695
5647 5642 5637 5632 5627 5624 5619 5614 5608 5602 5598 5594 5592 5591 5590 5590 5590 5590 5590 5590 5590 5589 5589 5590 5593 5597 5602 5607 5612 5617 5621 5627 5634 5644 5649 5656 5662 5667 5674 5678 5684 5687 5690
5643 5638 5633 5628 5623 5619 5615 5610 5604 5598 5593 5589 5586 5583 5583 5584 5582 5581 5581 5582 5583 5584 5585 5585 5587 5590 5595 5600 5603 5607 5611 5617 5624 5633 5638 5645 5652 5658 5665 5671 5677 5681 5686
5640 5635 5631 5626 5620 5617 5612 5607 5601 5594 5588 5585 5581 5579 5576 5575 5574 5572 5572 5573 5574 5575 5577 5579 5582 5585 5589 5593 5596 5599 5603 5609 5616 5623 5629 5634 5642 5649 5656 5662 5669 5675 5680
5638 5633 5628 5623 5618 5614 5609 5604 5597 5589 5584 5581 5578 5575 5572 5569 5567 5566 5564 5563 5565 5567 5570 5573 5576 5579 5582 5585 5588 5589 5593 5597 5604 5612 5619 5625 5633 5638 5645 5653 5660 5667 5672
5636 5631 5626 5621 5616 5611 5607 5601 5594 5586 5580 5577 5573 5570 5568 5564 5562 5560 5556 5555 5555 5558 5560 5563 5566 5570 5573 5577 5580 5583 5587 5590 5595 5602 5610 5616 5623 5627 5634 5643 5650 5657 5663